{"data":{"norad_id":45404,"epoch":"2026-09-19T16:29:49.066944Z","epoch_age_seconds":84430,"freshness":"FRESH","line1":"1 45404U 20019AW  26262.68737346  .00037953  00000+0  74900-3 0  9990","line2":"2 45404  53.1516 296.7470 0003661  33.8256 326.2985 15.46822410359834","mean_motion":15.4682241,"eccentricity":0.0003661,"inclination_deg":53.1516,"raan_deg":296.747,"arg_perigee_deg":33.8256,"mean_anomaly_deg":326.2985,"bstar":0.000749,"rev_number":35983,"period_min":93.094074063745,"perigee_km":423.53753408267,"apogee_km":428.51954409039,"semimajor_km":6804.1655390865,"source":"CELESTRAK","updated_at":"2026-09-20T09:00:38.233862Z"}}